Montgomery, NY

11:16 PM EDT on August 28, 2016 (GMT -0400)
Orange County

Weather History for KMGJ - April, 2014

Change the Weather History Date:

Tuesday, April 15, 2014

  Actual Average (KPOU) Record (KPOU)
Temperature  
Mean Temperature 48 °F 49 °F  
Max Temperature 66 °F 61 °F 84 °F (2003)
Min Temperature 33 °F 37 °F 22 °F (1957)
Degree Days  
Heating Degree Days 16 16  
Month to date heating degree days 288  
Since 1 July heating degree days 5733  
Cooling Degree Days 0 0  
Month to date cooling degree days 0  
Year to date cooling degree days 0  
Moisture  
Dew Point 49 °F    
Average Humidity 86    
Maximum Humidity 94    
Minimum Humidity 68    
Precipitation  
Precipitation 1.31 in 0.12 in 3.65 in (2007)
Month to date precipitation 1.93  
Year to date precipitation 11.24  
Sea Level Pressure  
Sea Level Pressure 29.69 in    
Wind  
Wind Speed 11 mph (SW)    
Max Wind Speed 20 mph    
Max Gust Speed 29 mph    
Visibility 6 miles    
Events Rain , Snow    
T = Trace of Precipitation, MM = Missing Value Source: NWS Daily Summary

Daily Weather History Graph

Daily Weather History Graph

Search for Another Location

Airport or City:

Trip Planner

Search our weather history database for the weather conditions in past years. The results will help you decide how hot, cold, wet, or windy it might be!

Date:

Astronomy

Apr. 15, 2014 Rise Set
Actual Time 6:17 AM EDT 7:37 PM EDT
Civil Twilight 5:48 AM EDT 8:06 PM EDT
Nautical Twilight 5:14 AM EDT 8:40 PM EDT
Astronomical Twilight 4:37 AM EDT 9:17 PM EDT
Moon 8:16 PM EDT (4/15) 6:23 AM EDT (4/15)
Length of Visible Light 14h 17m
Length of Day
13h 20m
Full, 100% of the Moon is Illuminated
Apr 15
Full
Apr 22
Last Quarter
Apr 29
New
May 6
First Quarter
May 14
Full

Hourly Weather History & Observations

Time (EDT) Temp. Windchill Dew Point Humidity Pressure Visibility Wind Dir Wind Speed Gust Speed Precip Events Conditions
12:54 AM 64.9 °F - 54.0 °F 68% 29.80 in 10.0 mi SSW 9.2 mph - N/A   Clear
1:54 AM 64.9 °F - 55.0 °F 70% 29.76 in 10.0 mi South 9.2 mph - N/A   Clear
2:54 AM 64.0 °F - 55.0 °F 73% 29.75 in 10.0 mi South 11.5 mph - N/A   Partly Cloudy
3:54 AM 64.0 °F - 55.0 °F 73% 29.75 in 10.0 mi South 10.4 mph - 0.00 in Rain Light Rain
4:54 AM 63.0 °F - 55.9 °F 78% 29.73 in 10.0 mi SSE 6.9 mph - 0.00 in Rain Light Rain
5:33 AM 62.1 °F - 57.9 °F 86% 29.72 in 9.0 mi South 9.2 mph - 0.02 in Rain Light Rain
5:54 AM 61.0 °F - 57.9 °F 90% 29.71 in 10.0 mi SSE 8.1 mph - 0.02 in   Overcast
6:07 AM 61.0 °F - 57.9 °F 90% 29.70 in 10.0 mi South 5.8 mph - N/A   Overcast
6:54 AM 62.1 °F - 57.9 °F 86% 29.68 in 10.0 mi South 15.0 mph 21.9 mph N/A   Overcast
7:04 AM 62.1 °F - 57.9 °F 86% 29.68 in 10.0 mi South 11.5 mph 20.7 mph N/A   Overcast
7:54 AM 62.1 °F - 59.0 °F 90% 29.67 in 10.0 mi South 10.4 mph - 0.00 in   Overcast
8:15 AM 63.0 °F - 59.0 °F 87% 29.65 in 10.0 mi South 12.7 mph - N/A   Overcast
8:54 AM 63.0 °F - 60.1 °F 90% 29.64 in 10.0 mi SSE 9.2 mph - 0.00 in Rain Light Rain
9:05 AM 63.0 °F - 60.1 °F 90% 29.63 in 10.0 mi South 12.7 mph - 0.00 in Rain Light Rain
9:54 AM 64.0 °F - 61.0 °F 90% 29.61 in 9.0 mi South 12.7 mph - 0.01 in Rain Light Rain
10:15 AM 64.0 °F - 61.0 °F 90% 29.58 in 10.0 mi SE 12.7 mph - 0.00 in   Overcast
10:45 AM 64.0 °F - 61.0 °F 90% 29.57 in 8.0 mi SSE 11.5 mph - 0.00 in   Overcast
10:54 AM 64.0 °F - 61.0 °F 90% 29.56 in 9.0 mi South 12.7 mph - 0.00 in Rain Light Rain
11:37 AM 64.0 °F - 61.0 °F 90% 29.54 in 6.0 mi South 15.0 mph 25.3 mph 0.01 in Rain Light Rain
11:54 AM 64.0 °F - 61.0 °F 90% 29.53 in 5.0 mi South 16.1 mph 25.3 mph 0.05 in Rain Rain
12:14 PM 64.0 °F - 61.0 °F 90% 29.54 in 7.0 mi South 16.1 mph 24.2 mph 0.04 in Rain Rain
12:22 PM 64.9 °F - 61.0 °F 87% 29.54 in 9.0 mi South 15.0 mph 24.2 mph 0.04 in Rain Light Rain
12:54 PM 63.0 °F - 60.1 °F 90% 29.53 in 1.5 mi SSW 15.0 mph 24.2 mph 0.21 in Rain Heavy Rain
1:54 PM 64.0 °F - 62.1 °F 93% 29.51 in 3.0 mi South 8.1 mph - 0.26 in Rain Heavy Rain
2:49 PM 62.6 °F - 60.8 °F 94% 29.50 in 2.0 mi SSW 10.4 mph - 0.18 in Rain Heavy Rain
2:54 PM 63.0 °F - 61.0 °F 93% 29.49 in 2.5 mi SSW 12.7 mph - 0.20 in Rain Heavy Rain
3:17 PM 63.0 °F - 60.1 °F 90% 29.48 in 3.0 mi SSW 16.1 mph 21.9 mph 0.08 in Rain Rain
3:23 PM 62.1 °F - 60.1 °F 93% 29.50 in 2.5 mi West 17.3 mph 21.9 mph 0.11 in Rain Heavy Rain
3:29 PM 57.9 °F - 54.0 °F 87% 29.51 in 3.0 mi WNW 17.3 mph 24.2 mph 0.13 in Rain Rain
3:32 PM 57.0 °F - 52.0 °F 83% 29.52 in 4.0 mi WNW 17.3 mph - 0.13 in Rain Rain
3:54 PM 55.0 °F - 50.0 °F 83% 29.53 in 7.0 mi WNW 12.7 mph 28.8 mph 0.16 in Rain Rain
4:54 PM 50.0 °F - 44.1 °F 80% 29.61 in 8.0 mi West 10.4 mph 17.3 mph 0.12 in Rain Light Rain
5:54 PM 46.9 °F - 41.0 °F 80% 29.66 in 10.0 mi WNW 10.4 mph - 0.02 in   Overcast
6:54 PM 44.1 °F 36.8 °F 37.9 °F 79% 29.70 in 6.0 mi WNW 16.1 mph 24.2 mph 0.07 in Rain Rain
7:54 PM 39.0 °F 29.3 °F 33.1 °F 79% 29.78 in 7.0 mi NW 19.6 mph 26.5 mph 0.05 in Rain Rain
8:54 PM 36.0 °F 28.0 °F 30.9 °F 82% 29.83 in 5.0 mi NW 11.5 mph - 0.06 in Rain Rain
9:25 PM 35.1 °F 28.6 °F 30.9 °F 85% 29.88 in 4.0 mi WNW 8.1 mph - 0.02 in Snow Light Snow
9:54 PM 34.0 °F 26.6 °F 30.9 °F 89% 29.88 in 4.0 mi WNW 9.2 mph - 0.04 in Snow Light Snow
10:29 PM 34.0 °F 28.0 °F 30.9 °F 89% 29.87 in 2.5 mi NNW 6.9 mph - 0.02 in Snow Light Snow
10:36 PM 34.0 °F 28.0 °F 30.9 °F 89% 29.87 in 3.0 mi NNW 6.9 mph - 0.02 in Snow Light Snow
10:42 PM 34.0 °F 26.0 °F 30.9 °F 89% 29.87 in 2.5 mi NNW 10.4 mph 20.7 mph 0.03 in Snow Light Snow
10:54 PM 34.0 °F 25.5 °F 30.0 °F 85% 29.88 in 2.5 mi NNW 11.5 mph 17.3 mph 0.03 in Snow Light Snow
11:05 PM 34.0 °F 26.0 °F 30.0 °F 85% 29.90 in 5.0 mi NNW 10.4 mph - 0.00 in Snow Light Snow
11:13 PM 34.0 °F 26.6 °F 30.0 °F 85% 29.89 in 6.0 mi NNW 9.2 mph - 0.00 in Snow Light Snow
11:30 PM 34.0 °F 26.0 °F 30.0 °F 85% 29.92 in 1.8 mi NW 10.4 mph - 0.01 in Snow Light Snow
11:40 PM 33.1 °F 23.0 °F 28.9 °F 85% 29.92 in 1.2 mi NNW 15.0 mph 26.5 mph 0.01 in Snow Light Snow
11:50 PM 33.8 °F 27.7 °F 30.2 °F 87% 29.92 in 3.0 mi NW 6.9 mph 17.3 mph 0.01 in Snow Light Snow
11:54 PM 33.1 °F 25.5 °F 30.0 °F 89% 29.91 in 6.0 mi NNW 9.2 mph - 0.01 in Snow Light Snow